ELECTRON KICK STAGE R/B, 60085

Orbit data source: Space-Track

ELECTRON KICK STAGE R/B, 60085 is space debris in SSO originally from a launch on Thu, 20 Jun 2024 UTC launched from the Rocket Lab Launch Complex (RLLC). Debris objects in space refer to the collection of defunct objects orbiting the Earth. Examples of debris include non-operational satellites, rocket bodies, and fragments generated from explosions, collisions, or faulty payload assembly.

Loading next visibility...
Identifier
60085, 2024-114G
Orbit
SSO
Country
Flag of USUS
Related business
Manufacturer
Rocket Lab
Mission
Spacecraft
Bus & Motor
KICK STAGE, CURIE
Mass
~50 kg wet, ~50 kg dry
Launch date (UTC)
2024-06-20 (2 years ago)
Launch vehicle
Unknown
Launch site
Rocket Lab Launch Complex (RLLC)
Object type
Payload
Rocket body
Debris
Shape & HBR
Trunc Cone, 0.7 m
Radar Cross Section
0.760 m², Large (>1 m²)

Expand to show TLE details & history
Last TLE update: 15 hours ago

TLE from 15 hours ago
0 ELECTRON KICK STAGE R/B
1 60085U 24114G   26255.13758902  .00005312  00000-0  27293-3 0  9993
2 60085  97.9293 312.7628 0063165 160.3342 200.0347 15.15203388122556
Epoch: 2026-09-12T03:18Z
TLE epoch observation values (Epoch: 2026-09-12T03:18:07.691Z)
Latitude
0.00006°
Longitude
-87.92016°
Altitude
564.408 km
Speed
7.556 km/s
True Right ascension
20h 51m 03s
True Declination
0° 00' 00"
Sunlit
Object was in full shadow at epoch
Visualization orbit readout
Latitude
Unknown
Longitude
Unknown
Altitude
Unknown
Speed
Unknown
Apparent Right ascension
Unknown
Apparent Declination
Unknown
Sunlit
N/A
Visualization observer readout
Local Sidereal Time
10:37:55
Azimuth
Unknown
Elevation
Unknown
Doppler factor
Unknown
Orbital elements
Apogee altitude
560.912 km
Perigee altitude
473.801 km
Semi-major axis
6,895.493 km
Eccentricity
0.00632
Inclination
97.9293°
RAAN
312.7628°
Arg. of periapsis
160.3342°
True anomaly
199.78856°
Mean anomaly
200.0347°
Eccentric anomaly
199.91145°
Mean motion
3.79049 °/min
Orbital period
94.97 mins
BSTAR
0.00027293
Loading maneuver chart data...
Computing Atmospheric mass density...
Loading historical data...
Loading historical data...
Loading historical data...
Loading historical data...
Loading historical data...
Loading historical data...
Loading historical data...

Documentation

Showing up to 5 results
|